This is the latest recevied weather packets stored in our database for station/object KF6FPU-15. If no packets are shown the sender has not sent any weather packets the latest 10 day(s).
| Time | Temp. | Humidity | Pressure | Rain* | Wind** | Luminosity | Snow |
|---|---|---|---|---|---|---|---|
| 1777678909 | 25.56° C | 20% | 1010.9 hPa | - | - | - | - |
| 1777678309 | 26.11° C | 20% | 1010.9 hPa | - | - | - | - |
| 1777677710 | 27.22° C | 20% | 1011 hPa | - | - | - | - |
| 1777677110 | 27.78° C | 19% | 1011.1 hPa | - | - | - | - |
| 1777676510 | 28.33° C | 19% | 1011.1 hPa | - | - | - | - |
| 1777675910 | 27.78° C | 19% | 1011.3 hPa | - | - | - | - |
| 1777675309 | 27.78° C | 19% | 1011.5 hPa | - | - | - | - |
| 1777674710 | 28.33° C | 19% | 1011.7 hPa | - | - | - | - |
| 1777674110 | 28.89° C | 19% | 1011.9 hPa | - | - | - | - |
| 1777673510 | 28.89° C | 19% | 1012.1 hPa | - | - | - | - |
| 1777672310 | 27.78° C | 19% | 1012.3 hPa | - | - | - | - |
| 1777671710 | 28.89° C | 19% | 1012.5 hPa | - | - | - | - |
| 1777671110 | 28.33° C | 19% | 1012.6 hPa | - | - | - | - |
| 1777670510 | 27.78° C | 19% | 1012.7 hPa | - | - | - | - |
| 1777669910 | 28.33° C | 19% | 1012.7 hPa | - | - | - | - |
| 1777669309 | 28.89° C | 19% | 1012.8 hPa | - | - | - | - |
| 1777668709 | 31.67° C | 18% | 1012.8 hPa | - | - | - | - |
| 1777668110 | 32.22° C | 18% | 1012.9 hPa | - | - | - | - |
| 1777667510 | 32.22° C | 18% | 1012.9 hPa | - | - | - | - |
| 1777666910 | 32.22° C | 18% | 1013 hPa | - | - | - | - |
| 1777665709 | 31.67° C | 18% | 1013.3 hPa | - | - | - | - |
| 1777665110 | 31.11° C | 18% | 1013.4 hPa | - | - | - | - |
| 1777664510 | 30.56° C | 18% | 1013.5 hPa | - | - | - | - |
| 1777663910 | 31.11° C | 18% | 1013.6 hPa | - | - | - | - |
| 1777663310 | 31.11° C | 18% | 1013.8 hPa | - | - | - | - |
* Rain since midnight (hover to see other rain measurements)
** Current wind speed in m/s (hover to see current wind gust speed)